Skagway, AK

8:23 PM AKDT on September 19, 2017 (GMT -0800)
Skagway

Weather History for PAGY - January, 2014

Change the Weather History Date:

Thursday, January 30, 2014

  Actual Average Record
Temperature  
Mean Temperature 36 °F -  
Max Temperature 44 °F 30 °F 46 °F (1993)
Min Temperature 28 °F 22 °F -14 °F (1989)
Degree Days  
Heating Degree Days 29    
Moisture  
Dew Point 27 °F    
Average Humidity 68    
Maximum Humidity 86    
Minimum Humidity 51    
Precipitation  
Precipitation 0.00 in - - ()
Sea Level Pressure  
Sea Level Pressure 30.12 in    
Wind  
Wind Speed 5 mph (NE)    
Max Wind Speed 12 mph    
Max Gust Speed -    
Visibility 10 miles    
Events      
Averages and records for this station are not official NWS values.
T = Trace of Precipitation, MM = Missing Value Source: NWS Daily Summary

Daily Weather History Graph

Daily Weather History Graph

Search for Another Location

Airport or City:

Trip Planner

Search our weather history database for the weather conditions in past years. The results will help you decide how hot, cold, wet, or windy it might be!

Date:

Astronomy

Jan. 30, 2014 Rise Set
Actual Time 8:16 AM AKST 4:13 PM AKST
Civil Twilight 7:29 AM AKST 5:00 PM AKST
Nautical Twilight 6:39 AM AKST 5:50 PM AKST
Astronomical Twilight 5:51 AM AKST 6:38 PM AKST
Moon 7:34 AM AKST (1/30) 4:53 PM AKST (1/30)
Length of Visible Light 9h 31m
Length of Day
7h 57m
Waning Crescent, 0% of the Moon is Illuminated
Jan 30
Waning Crescent
Jan 30
New
Feb 6
First Quarter
Feb 14
Full
Feb 22
Last Quarter

Hourly Weather History & Observations

Time (AKST) Temp. Windchill Dew Point Humidity Pressure Visibility Wind Dir Wind Speed Gust Speed Precip Events Conditions
12:53 AM 39.0 °F - 35.1 °F 86% 30.12 in 10.0 mi Calm Calm - N/A   Overcast
1:53 AM 44.1 °F 38.1 °F 32.0 °F 63% 30.11 in 10.0 mi North 11.5 mph - N/A   Overcast
3:53 AM 44.1 °F 42.5 °F 28.9 °F 55% 30.11 in 10.0 mi NNW 3.5 mph - N/A   Overcast
4:53 AM 42.1 °F 37.1 °F 28.9 °F 60% 30.12 in 10.0 mi NNE 8.1 mph - N/A   Overcast
5:53 AM 41.0 °F 37.1 °F 28.9 °F 62% 30.12 in 10.0 mi NNE 5.8 mph - N/A   Mostly Cloudy
6:53 AM 39.0 °F 32.8 °F 28.0 °F 65% 30.12 in 10.0 mi NE 9.2 mph - N/A   Mostly Cloudy
7:53 AM 39.9 °F 34.5 °F 28.0 °F 63% 30.13 in 10.0 mi NE 8.1 mph - N/A   Scattered Clouds
8:53 AM 37.9 °F 32.1 °F 27.0 °F 65% 30.14 in 10.0 mi NE 8.1 mph - N/A   Clear
9:53 AM 39.0 °F 35.7 °F 27.0 °F 62% 30.14 in 10.0 mi NE 4.6 mph - N/A   Clear
10:53 AM 37.9 °F 32.7 °F 27.0 °F 65% 30.14 in 10.0 mi NE 6.9 mph - N/A   Clear
11:53 AM 41.0 °F 34.7 °F 27.0 °F 57% 30.13 in 10.0 mi NE 10.4 mph - N/A   Clear
12:53 PM 43.0 °F 37.7 °F 27.0 °F 53% 30.12 in 10.0 mi NE 9.2 mph - N/A   Clear
1:53 PM 44.1 °F 39.0 °F 27.0 °F 51% 30.10 in 10.0 mi NE 9.2 mph - N/A   Clear
2:53 PM 43.0 °F 38.8 °F 26.1 °F 51% 30.11 in 10.0 mi NE 6.9 mph - N/A   Clear
3:53 PM 39.9 °F - 26.1 °F 58% 30.12 in 10.0 mi Calm Calm - N/A   Clear
4:53 PM 36.0 °F - 28.0 °F 73% 30.12 in 10.0 mi Calm Calm - N/A   Clear
5:53 PM 34.0 °F - 27.0 °F 75% 30.12 in 10.0 mi Calm Calm - N/A   Clear
6:53 PM 32.0 °F - 26.1 °F 79% 30.11 in 7.0 mi Calm Calm - N/A   Clear
7:53 PM 30.9 °F - 25.0 °F 79% 30.12 in 9.0 mi Calm Calm - N/A   Clear
8:53 PM 30.0 °F 26.5 °F 25.0 °F 82% 30.13 in 9.0 mi NE 3.5 mph - N/A   Clear
9:53 PM 28.9 °F 22.8 °F 25.0 °F 85% 30.12 in 9.0 mi NE 5.8 mph - N/A   Clear
10:53 PM 30.0 °F - 26.1 °F 85% 30.12 in 10.0 mi Calm Calm - N/A   Clear
11:53 PM 28.9 °F - 25.0 °F 85% 30.12 in 8.0 mi Calm Calm - N/A   Clear